Regional Weather Roundup
Issued by NWS Albany, NY

Home | Current Version | Previous Version | Text Only | Print | Product List | Glossary On
Versions: 1 2 3 4 5 6 7 8 9 10 11 12 13 14 15 16 17 18 19 20 21 22 23 24 25 26 27 28 29 30 31 32 33 34 35 36 37 38 39 40 41 42 43 44 45 46 47 48 49 50
000
ASUS41 KALY 032310
RWRALY

NEW YORK STATE HOURLY WEATHER ROUNDUP
NATIONAL WEATHER SERVICE ALBANY NY
700 PM EDT FRI JUL 03 2015

NOTE: "FAIR" INDICATES FEW OR NO CLOUDS BELOW 12,000 FEET WITH NO
SIGNIFICANT WEATHER AND/OR NO OBSTRUCTIONS TO VISIBILITY.

NYZ032-033-038>043-046>054-057>066-NYZ062>081-040000-
EAST


CITY           SKY/WX    TMP DP  RH WIND       PRES   REMARKS
ALBANY         PTSUNNY   76  48  37 E5        29.96S
GLENS FALLS    SUNNY     73  52  47 S9        29.96R
POUGHKEEPSIE   MOSUNNY   76  52  43 SE3       29.95S
NEWBURGH       PTSUNNY   75  54  46 VRB5      29.97F
MONTGOMERY     MOSUNNY   74  56  53 SE7       29.95S
WHITE PLAINS   PTSUNNY   73  50  44 SE7       29.97R
ISLIP          PTSUNNY   75  52  44 SE7       29.96S
NEW YORK CITY  PTSUNNY   77  55  46 SE10      29.94F
CENTRAL PARK   PTSUNNY   78  56  46 CALM      29.98S
$$

NYZ005>009-017-018-044>046-055-056-040000-
CENTRAL


CITY           SKY/WX    TMP DP  RH WIND       PRES   REMARKS
FULTON         MOSUNNY   70  48  45 NE6       29.95F
SYRACUSE       PTSUNNY   72  53  51 E6        29.94F
ROME           SUNNY     74  47  38 N3        29.96F
ELMIRA         PTSUNNY   76  58  53 SW5       29.93R
BINGHAMTON     PTSUNNY   71  52  50 CALM      29.97F
MONTICELLO     PTSUNNY   72  52  49 E3        29.99F
$$

NYZ026>034-041>043-040000-
NORTH


CITY           SKY/WX    TMP DP  RH WIND       PRES   REMARKS
WATERTOWN      SUNNY     69  51  52 CALM      29.95F
FORT DRUM      NOT AVBL
MASSENA        SUNNY     72  50  45 SW9       29.95S
SARANAC LAKE   SUNNY     69  43  38 W8        29.97S
PLATTSBURGH    SUNNY     72  54  53 E5        29.93S
$$

NYZ001>004-010>016-019>021-040000-
WEST


CITY           SKY/WX    TMP DP  RH WIND       PRES   REMARKS
NIAGARA FALLS  PTSUNNY   69  49  48 NE10      29.94S
BUFFALO        PTSUNNY   71  51  49 N10       29.93S
DUNKIRK        PTSUNNY   69  53  56 CALM      29.92F
JAMESTOWN      PTSUNNY   70  54  56 NW9       29.95S
WELLSVILLE     PTSUNNY   71  54  54 S6        29.98F
ROCHESTER      PTSUNNY   70  50  49 NE10      29.94F
PENN YAN       PTSUNNY   73  54  51 CALM      29.94F
$$

             KEY
       WCI = WIND CHILL INDEX
       VSB = VISIBILITY
       HX  = HEAT INDEX
$$


USA.gov is the U.S. government's official web portal to all federal, state and local government web resources and services.